This is the latest recevied weather packets stored in our database for station/object AG1T-20. If no packets are shown the sender has not sent any weather packets the latest 10 day(s).
| Time | Temp. | Humidity | Pressure | Rain* | Wind** | Luminosity | Snow |
|---|---|---|---|---|---|---|---|
| 1777594804 | 16.11° C | 25% | 1019 hPa | 0 mm | - | 208 W/m² | - |
| 1777594204 | 16.67° C | 28% | 1019 hPa | 0 mm | - | 250 W/m² | - |
| 1777593605 | 16.11° C | 26% | 1019 hPa | 0 mm | - | 276 W/m² | - |
| 1777593005 | 16.67° C | 25% | 1019.2 hPa | 0 mm | - | 276 W/m² | - |
| 1777591804 | 17.78° C | 26% | 1019.2 hPa | 0 mm | - | 302 W/m² | - |
| 1777591204 | 17.22° C | 24% | 1019.2 hPa | 0 mm | - | 293 W/m² | - |
| 1777590604 | 16.67° C | 26% | 1019.2 hPa | 0 mm | - | 311 W/m² | - |
| 1777590004 | 16.11° C | 29% | 1019.2 hPa | 0 mm | - | 335 W/m² | - |
| 1777589404 | 17.78° C | 32% | 1019.8 hPa | 0 mm | - | 363 W/m² | - |
| 1777588804 | 16.67° C | 30% | 1019.8 hPa | 0 mm | - | 389 W/m² | - |
| 1777588204 | 16.67° C | 32% | 1019.8 hPa | 0 mm | - | 417 W/m² | - |
| 1777587604 | 16.11° C | 31% | 1019.8 hPa | 0 mm | - | 445 W/m² | - |
| 1777587004 | 16.11° C | 32% | 1019.8 hPa | 0 mm | - | 468 W/m² | - |
| 1777586404 | 15.56° C | 29% | 1019.8 hPa | 0 mm | - | 495 W/m² | - |
| 1777585804 | 15° C | 33% | 1020.7 hPa | 0 mm | - | 538 W/m² | - |
| 1777585204 | 15° C | 38% | 1020.7 hPa | 0 mm | - | 521 W/m² | - |
| 1777584605 | 15.56° C | 31% | 1020.7 hPa | 0 mm | - | 464 W/m² | - |
| 1777584004 | 15° C | 38% | 1020.7 hPa | 0 mm | - | 732 W/m² | - |
| 1777583405 | 14.44° C | 33% | 1020.7 hPa | 0 mm | - | 398 W/m² | - |
| 1777582804 | 14.44° C | 38% | 1020.7 hPa | 0 mm | - | 337 W/m² | - |
| 1777582204 | 14.44° C | 40% | 1020.6 hPa | 0 mm | - | 352 W/m² | - |
| 1777581605 | 14.44° C | 39% | 1020.6 hPa | 0 mm | - | 436 W/m² | - |
| 1777581005 | 13.89° C | 35% | 1020.6 hPa | 0 mm | - | 418 W/m² | - |
| 1777580405 | 13.33° C | 37% | 1020.6 hPa | 0 mm | - | 294 W/m² | - |
| 1777579805 | 13.89° C | 40% | 1020.6 hPa | 0 mm | - | 252 W/m² | - |
* Rain latest hour (hover to see other rain measurements)
** Current wind speed in m/s (hover to see current wind gust speed)